Regional Weather Roundup
Issued by NWS

Home | Current Version | Previous Version | Graphics & Text | Print | Product List | Glossary On
Versions: 1 2 3 4 5 6 7 8 9 10 11 12 13 14 15 16 17 18 19 20 21 22 23 24 25 26 27 28 29 30 31 32 33 34 35 36 37 38 39 40 41 42 43 44 45 46 47 48 49 50
492
ASUS45 KBOU 300110
RWRCO

WEATHER ROUNDUP FOR COLORADO
NATIONAL WEATHER SERVICE DENVER/BOULDER CO
700 PM MDT THU SEP 29 2016

NOTE: "FAIR" INDICATES FEW OR NO CLOUDS BELOW 12000 FEET WITH NO
SIGNIFICANT WEATHER AND/OR OBSTRUCTIONS TO VISIBILITY.

COZ001>005-013-030-031-300200-
...NORTHWEST COLORADO...

CITY           SKY/WX    TMP DP  RH WIND       PRES   REMARKS
CRAIG          CLOUDY    59  50  72 E3        30.38S
HAYDEN         CLOUDY    57  45  62 CALM      30.40S
MEEKER         MOCLDY    59  53  80 CALM      30.38F
MOUNT WERNER   NOT AVBL
STEAMBOAT SPGS CLOUDY    58  47  69 CALM      30.41S
WALDEN           N/A     59  36  41 W6        30.46F
$$

COZ006>008-011-300200-
...WEST CENTRAL VALLEYS...

CITY           SKY/WX    TMP DP  RH WIND       PRES   REMARKS
GRAND JUNCTION CLOUDY    63  58  83 CALM      30.33S
MONTROSE       MOCLDY    61  48  62 N6        30.40F
EAGLE          CLOUDY    64  43  45 W12       30.39S
RIFLE          CLOUDY    63  53  70 CALM      30.35S
DELTA          NOT AVBL
NUCLA          DRIZZLE   55  54  94 NW3       30.44F
$$

COZ017>023-064>068-300200-
...SOUTHWEST COLORADO...

CITY           SKY/WX    TMP DP  RH WIND       PRES   REMARKS
DURANGO        CLOUDY    55  50  83 W6        30.48R
CORTEZ         FAIR      57  54  89 CALM      30.41F
PAGOSA SPRINGS MOCLDY    56  43  61 CALM      30.49F
TELLURIDE      DRIZZLE   50  41  71 CALM      30.56F
WOLF CREEK PAS FAIR      37  34  87 MISG      30.74S
$$

COZ009-010-012-014-032>034-037-058>063-300200-
...CENTRAL COLORADO...

CITY           SKY/WX    TMP DP  RH WIND       PRES   REMARKS
ASPEN          CLOUDY    59  42  53 N9        30.44R
BUENA VISTA    MOCLDY    65  26  23 SE9G17    30.42F
COPPER MTN     FAIR      52  30  43 S6        30.69F
BERTHOUD PASS  CLOUDY    41  28  60 N5        30.72F
COTTONWOOD PAS CLOUDY    59  21  23 SE13      30.55F
GUNNISON       FAIR      61  41  48 SW7       30.45R
KREMMLING      CLOUDY    63  30  29 CALM      30.41S
LEADVILLE      MOCLDY    54  26  34 SE6       30.54S
MONARCH PASS   CLOUDY    45  32  61 SW15G21   30.80S
SALIDA         FAIR      69  30  23 S10G16    30.47F
SUNLIGHT       CLOUDY    45  41  87 SW7       30.65S
WILKERSON PASS MOCLDY    48  27  43 S7        30.68S
$$

COZ069>075-300200-
...SAN LUIS VALLEY/SANGRE DE CRISTO MOUNTAINS...

CITY           SKY/WX    TMP DP  RH WIND       PRES   REMARKS
ALAMOSA        FAIR      63  37  38 NW9       30.41S
LA VETA PASS   FAIR      54  28  37 MISG      30.59F
SAGUACHE       CLOUDY    63  36  36 NW14      30.45F
$$

COZ035-036-038>040-300200-
...NORTHERN COLORADO FRONT RANGE...

CITY           SKY/WX    TMP DP  RH WIND       PRES   REMARKS
DENVER INTL AP FAIR      72  40  31 W6        30.23R
DMNS CITY PARK   N/A     68  44  42 SE5       30.23S
AURORA         PTCLDY    73  32  22 S7        30.25R
FRONT RANGE AP PTCLDY    73  30  20 S7        30.25R
ERIE MUNI ARPT FAIR      68  38  33 CALM      30.21S
BOULDER MUN AP FAIR      70  41  35 CALM      30.21F
CENTENNIAL     FAIR      72  32  23 VRB3      30.26R
BROOMFIELD     NOT AVBL
FORT COLLINS   FAIR      70  41  35 NW6       30.18S
LONGMONT       FAIR      70  46  41 CALM      30.21F
$$

COZ041-046-047-076>085-087-088-300200-
...PIKES PEAK/PALMER DIVIDE AND SOUTHERN FOOTHILLS...

CITY           SKY/WX    TMP DP  RH WIND       PRES   REMARKS
COLO. SPRINGS  FAIR      70  32  24 SE10      30.33S
A. F. ACADEMY  FAIR      69  32  25 S10       30.34R
SCHRIEVER AFB  NOT AVBL
ELLICOTT       NOT AVBL
FALCON         FAIR      61  31  31 S8        30.38S
FORT CARSON    FAIR      69  34  27 SE9       30.30S
LIMON          FAIR      68  40  35 SE18      30.29S
MONUMENT HILL  FAIR      63  32  31 S14G20    30.37S
TRINIDAD       FAIR      70  33  25 S16       30.30F
$$

COZ042>045-048>051-090-091-300200-
...NORTHEAST COLORADO...

CITY           SKY/WX    TMP DP  RH WIND       PRES   REMARKS
GREELEY ARPT   FAIR      73  36  25 S5        30.16F
AKRON          FAIR      68  40  35 SE16      30.25S
BURLINGTON       N/A     64  41  42 SE13      30.28F
WRAY           FAIR      68  41  37 SE13G18   30.27R
STERLING       FAIR      72  43  35 SE12G17   30.20S
HOLYOKE        FAIR      66  41  39 SE9       30.27S
FORT MORGAN    FAIR      72  39  30 SE14G21   30.21S
$$

COZ086-089-092>099-300200-
...SOUTHEAST COLORADO...

CITY           SKY/WX    TMP DP  RH WIND       PRES   REMARKS
PUEBLO         FAIR      75  37  25 E7        30.21S
LA JUNTA       FAIR      77  42  28 SE15      30.21S
LAMAR          FAIR      73  43  33 SE14      30.22S
SPRINGFIELD      N/A     65  45  48 SE15      30.29F
$$




USA.gov is the U.S. government's official web portal to all federal, state and local government web resources and services.